Weather Roundup
Issued by NWS Corpus Christi, TX

Home | Current Version | Previous Version | Text Only | Print | Product List | Glossary On
Versions: 1 2 3 4 5 6 7 8 9 10 11 12 13 14 15 16 17 18 19 20 21 22 23 24 25 26 27 28 29 30 31 32 33 34 35 36 37 38 39 40 41 42 43 44 45 46 47 48 49 50
000
ASUS44 KCRP 250510
HRRCRP

SOUTH TEXAS REGIONAL WEATHER ROUNDUP
NATIONAL WEATHER SERVICE CORPUS CHRISTI TX
1100 PM CST FRI FEB 24 2017


TXZ229>244-250600-
...CORPUS CHRISTI AREA OBSERVATIONS...

CITY           SKY/WX    TMP DP  RH WIND       PRES   REMARKS
CORPUS CHRISTI PTCLDY    67  42  40 NE20      29.91R
NAS CORPUS CHR PTCLDY    70  59  68 NE25      29.90R
ROCKPORT       PTCLDY    65  46  50 NE15      29.92R
KINGSVILLE NAS CLEAR     64  41  42 NE14      29.89R
ALICE          CLEAR     61  31  32 NE12      29.90R
ORANGE GROVE   CLEAR     65  34  31 NE15      29.92R
FALFURRIAS     CLEAR     64  53  66 NE5       29.91R
$$

...VICTORIA AREA OBSERVATIONS...

CITY           SKY/WX    TMP DP  RH WIND       PRES   REMARKS
VICTORIA       CLEAR     57  46  66 NE9       29.95R
BEEVILLE       FAIR      62  35  36 NE8       29.94R
PLEASANTON     CLEAR     59  32  36 NE6       29.97R
SAN ANTONIO    CLEAR     58  31  35 N8        29.98R
$$

...LAREDO AREA OBSERVATIONS...

CITY           SKY/WX    TMP DP  RH WIND       PRES   REMARKS
LAREDO         PTCLDY    65  35  33 E6        29.95R
COTULLA        PTCLDY    65  29  25 E9        29.93R
DEL RIO        CLEAR     53  29  39 S3        29.95R
MCALLEN        CLEAR     69  62  78 E3        29.90R
HEBBRONVILLE   CLEAR     63  28  26 CALM      29.94R
$$

...OTHER TEXAS OBSERVATIONS...

CITY           SKY/WX    TMP DP  RH WIND       PRES   REMARKS
BROWNSVILLE    CLEAR     70  66  87 NE6       29.88R
HOUSTON        CLEAR     61  40  45 N17G25    29.95S
COL. STATION   CLEAR     56  37  49 N14       29.99R
AUSTIN         CLEAR     57  37  47 N18       30.00R
WACO           CLEAR     45  35  68 N6        30.03R
FORT WORTH     CLEAR     50  28  42 N17       30.06R
WICHITA FALLS  CLEAR     39  23  52 NE18G29   30.14R WCI  30
LUBBOCK        CLEAR     37  19  48 E10       30.06R WCI  30
EL PASO        CLEAR     52   7  16 NE6       30.06R
$$

...MARINE OBSERVATIONS...

STATION/POSITION TIME  SKY/WX   TEMP    WIND        PRES    VSBY  WAVE   SWELL
                                AIR SEA DIR/SP/G                  HT/PER HT/PER
                 (UTC)          (F)     (DEG/KT/KT) (MB)    (MI)  (FT/S) (FT/S)
PORT ARANSAS     0400            71 70   20/ 18/ 19 1011.8R
BUOY 90 E PORT A 0350            72 71  360/ 14/ 16 1011.9          6/ 7   5/ 7
BUOY 45 SE BAFFI 0450            75      50/ 23/ 27 1010.7F         4/ 7   3/ 7
BUOY 200 E PT IS 0450            73 74   70/  2/  4 1011.3R         4/ 6   5/ 6
BUOY 15 E GALVES 0450            66 67  330/ 21/ 29 1012.8R         4/ 7   2/ 7
$$




USA.gov is the U.S. government's official web portal to all federal, state and local government web resources and services.